Change the Weather History Date:

Thursday, February 27, 2014

  Actual Average Record
Temperature  
Mean Temperature 42 °F 36 °F  
Max Temperature 49 °F 50 °F 67 °F (1972)
Min Temperature 35 °F 23 °F -22 °F (1962)
Degree Days  
Heating Degree Days 23 29  
Month to date heating degree days 731 857  
Since 1 July heating degree days 4562 4532  
Cooling Degree Days 0 0  
Month to date cooling degree days 0 0  
Year to date cooling degree days 0 0  
Moisture  
Dew Point 33 °F    
Average Humidity 71    
Maximum Humidity 92    
Minimum Humidity 50    
Precipitation  
Precipitation 0.26 in 0.04 in 0.28 in (2007)
Month to date precipitation 0.32 0.96  
Year to date precipitation 0.76 1.82  
Sea Level Pressure  
Sea Level Pressure 29.77 in    
Wind  
Wind Speed 15 mph (SSW)    
Max Wind Speed 33 mph    
Max Gust Speed 44 mph    
Visibility 8 miles    
Events Rain , Snow , Thunderstorm    
T = Trace of Precipitation, MM = Missing Value Source: NWS Daily Summary

Daily Weather History Graph

Daily Weather History Graph

Search for Another Location

Airport or City:

Trip Planner

Search our weather history database for the weather conditions in past years. The results will help you decide how hot, cold, wet, or windy it might be!

Date:

Astronomy

Feb. 27, 2014 Rise Set
Actual Time 7:06 AM MST 6:24 PM MST
Civil Twilight 6:40 AM MST 6:50 PM MST
Nautical Twilight 6:09 AM MST 7:20 PM MST
Astronomical Twilight 5:39 AM MST 7:51 PM MST
Moon 5:40 AM MST (2/27) 4:55 PM MST (2/27)
Length of Visible Light 12h 10m
Length of Day
11h 17m
Waning Crescent, 4% of the Moon is Illuminated
Feb 27
Waning Crescent
Mar 1
New
Mar 8
First Quarter
Mar 16
Full
Mar 23
Last Quarter

Hourly Weather History & Observations

Time (MST) Temp. Windchill Dew Point Humidity Pressure Visibility Wind Dir Wind Speed Gust Speed Precip Events Conditions
12:53 AM 45.0 °F 38.5 °F 33.1 °F 63% 29.79 in 10.0 mi SW 13.8 mph - N/A   Clear
1:53 AM 46.9 °F - 32.0 °F 56% 29.75 in 10.0 mi SSW 10.4 mph - N/A   Clear
2:53 AM 46.0 °F 41.4 °F 30.9 °F 56% 29.74 in 10.0 mi South 9.2 mph - N/A   Clear
3:53 AM 46.0 °F 40.6 °F 32.0 °F 58% 29.73 in 10.0 mi South 11.5 mph - N/A   Overcast
4:53 AM 46.0 °F 40.6 °F 30.0 °F 54% 29.70 in 10.0 mi SSW 11.5 mph 23.0 mph N/A   Clear
5:53 AM 46.9 °F - 30.0 °F 52% 29.70 in 10.0 mi South 24.2 mph 32.2 mph N/A   Clear
6:53 AM 46.0 °F 39.6 °F 30.0 °F 54% 29.70 in 10.0 mi SW 15.0 mph 26.5 mph N/A   Clear
7:53 AM 46.9 °F - 30.9 °F 54% 29.70 in 10.0 mi South 11.5 mph - N/A   Mostly Cloudy
8:53 AM 46.9 °F - 33.1 °F 59% 29.70 in 10.0 mi SSW 16.1 mph 25.3 mph N/A   Overcast
9:53 AM 48.0 °F - 34.0 °F 58% 29.67 in 10.0 mi SSW 16.1 mph 26.5 mph 0.00 in Rain Light Rain
10:41 AM 41.0 °F 32.5 °F 37.9 °F 89% 29.78 in 1.8 mi WSW 17.3 mph 29.9 mph 0.06 in Rain Heavy Rain
10:48 AM 41.0 °F 33.5 °F 37.4 °F 87% 29.78 in 3.0 mi WSW 13.8 mph 24.2 mph 0.08 in Rain Rain
10:49 AM 41.0 °F 33.9 °F 37.9 °F 89% 29.70 in 3.0 mi WSW 12.7 mph - 0.08 in Rain Rain
11:53 AM 48.9 °F - 39.0 °F 69% 29.65 in 10.0 mi SSW 26.5 mph 36.8 mph 0.00 in   Clear
12:18 PM 43.0 °F 33.5 °F 35.1 °F 74% 29.76 in 6.0 mi South 24.2 mph 43.7 mph 0.01 in Rain , Thunderstorm Light Rain
12:42 PM 39.0 °F 28.8 °F 35.1 °F 86% 29.80 in 2.5 mi SW 21.9 mph 36.8 mph 0.05 in Rain , Thunderstorm Heavy Rain
12:53 PM 37.9 °F 27.9 °F 35.1 °F 89% 29.75 in 2.5 mi SW 19.6 mph 31.1 mph 0.10 in Rain , Thunderstorm Rain
1:00 PM 37.0 °F 26.4 °F 34.0 °F 89% 29.81 in 4.0 mi SW 20.7 mph 35.7 mph 0.02 in Rain , Thunderstorm Rain
1:09 PM 35.1 °F 24.1 °F 32.0 °F 89% 29.83 in 4.0 mi West 19.6 mph 28.8 mph 0.04 in Snow Light Snow
1:43 PM 36.0 °F 27.5 °F 34.0 °F 93% 29.84 in 9.0 mi SSW 12.7 mph 24.2 mph 0.07 in Rain Light Rain
1:49 PM 35.6 °F 27.1 °F 33.8 °F 93% 29.84 in 6.0 mi South 12.7 mph 24.2 mph 0.08 in Snow Light Snow
1:50 PM 35.1 °F 26.9 °F 33.1 °F 92% 29.79 in 6.0 mi South 11.5 mph - 0.08 in Snow Light Snow
1:59 PM 37.0 °F 29.3 °F 34.0 °F 89% 29.84 in 8.0 mi South 11.5 mph - 0.00 in Snow Light Snow
2:12 PM 37.9 °F 30.0 °F 35.1 °F 89% 29.83 in 10.0 mi South 12.7 mph - 0.00 in Rain Light Rain
2:27 PM 39.0 °F 32.8 °F 35.1 °F 86% 29.83 in 10.0 mi South 9.2 mph - 0.00 in   Overcast
2:53 PM 42.1 °F 36.6 °F 36.0 °F 79% 29.74 in 10.0 mi SW 9.2 mph 24.2 mph 0.00 in   Scattered Clouds
3:53 PM 43.0 °F 34.8 °F 33.1 °F 68% 29.74 in 10.0 mi West 18.4 mph 27.6 mph N/A   Overcast
4:53 PM 46.0 °F 40.2 °F 33.1 °F 61% 29.74 in 10.0 mi WSW 12.7 mph - N/A   Clear
5:53 PM 46.0 °F 41.9 °F 30.0 °F 54% 29.75 in 10.0 mi West 8.1 mph - N/A   Mostly Cloudy
6:53 PM 43.0 °F 40.3 °F 30.9 °F 62% 29.78 in 10.0 mi SSE 4.6 mph - N/A   Overcast
7:53 PM 39.9 °F 35.1 °F 30.9 °F 70% 29.79 in 10.0 mi SSE 6.9 mph - N/A   Scattered Clouds
8:53 PM 39.9 °F 33.9 °F 30.0 °F 68% 29.80 in 10.0 mi SE 9.2 mph - N/A   Clear
9:53 PM 36.0 °F 31.1 °F 28.9 °F 76% 29.82 in 10.0 mi WSW 5.8 mph - N/A   Clear
10:53 PM 36.0 °F 30.3 °F 28.0 °F 73% 29.83 in 10.0 mi South 6.9 mph - N/A   Clear
11:53 PM 35.1 °F 28.6 °F 27.0 °F 72% 29.81 in 10.0 mi SSE 8.1 mph - N/A   Clear